JCSAT-16

Last updated on Wed Jul 02 2025 00:02:46 GMT+0000 (Coordinated Universal Time)

1 41729U 16050A 25182.59580682 -.00000247 00000+0 00000+0 0 9998 2 41729 0.0204 28.3330 0001977 74.7106 175.2820 1.00272080 32559
UTC large
Height (km)
Speed (km/s)
/
Latitude / Longitude
Inclination (degrees)
Orbital Period (minutes)
Azimuth
Elevation
Range (km)
Doppler Factor

Next 0 passes for location: London (51.5072 / 0.1276)

Sorry there are no passes over London.